"Pseudo-MPEC" for P11dgvs
Created 2021 Feb 24 16:07:13 UT using Find_Orb
Click here for an explanation of pseudo-MPECs
Astrometry: P11dgvs C2021 02 12)#dYRvLo;nb:*D'+yQMm6j
Astrometryi=ZD%/LC8)-K5]x+RnS:
F51 P11dgvs C2021 02 12/89jC8AJ_WoOOOsT8ywQ(^V=B.N#0ifH\VEtxIY/b8H[m`ZDk)HZ
F51 P11dgvs C2021 02 12%06S3FvyH20m,.=@q
redacted;5(0]WxR!Co^kO=
clickVe
hereK
F51 P11dgvs C2021 02 12if!C44S\t;ynfhwPLo-$GcGGm
forE?IeDlQE5?3B!.7T$CSTIMJ%
F51 P11dgvs C2021 02 12t@A@yj_C]jCL
explanation/VI1`eub(M1+i8/Hg)N.#NSbKjRHb
F51 Station data: (F51) Pan-STARRS 1, Haleakala (N20.707235 W156.255910) US/Hawaii. Observers N. Primak, A. Schultz, S. Watters, J. Thiel, T. Goggia. Measurer PS1 Science Consortium. 1.8-m Ritchey-Chrétien + CCD. Orbital elements: P11dgvs Perihelion 2021 May 1.028085 +/- 54.1937 TT = 0:40:26 (JD 2459335.528085) Epoch 2021 Feb 13.0 TT = JDT 2459258.5 Earth MOID: 0.4031 Ma: 0.0477 M 328.84185184 +/- 21.659696 (J2000 ecliptic) AutoNEOCP n 0.40450373 +/- 0.287093 Peri. 89.70507 +/- 97.293435 a 1.81073276 +/- 0.874621 Node 115.97478 +/- 51.506844 e 0.3315106 +/- 0.262928 Incl. 19.76924 +/- 12.621581 P 2.44/889.96d H 22.3 G 0.15 U 11.9 SR q 1.21045563 +/- 0.329714 Q 2.41100988 +/- 36.0192 From 5 observations 2021 Feb. 12 (43.8 min); mean residual 0".15
Residuals in arcseconds: 210212 F51 .01+ .23- 210212 F51 .02- .05+ 210212 F51 .08+ .21- 210212 F51 .07+ .17+ 210212 F51 .15- .22+ Ephemerides (geocentric): Date (UTC) HH RA Dec delta r elong mag " sig PA ---- -- -- -- ------------- ----------- ------ ------ ----- --- ---- --- 2021 02 24 16 10 44 56.167 +51 49 26.05 .43069 1.3389 137.4 22.4 36d 36 2021 02 24 17 10 44 56.753 +51 51 10.45 .43069 1.3387 137.4 22.4 36d 36 2021 02 24 18 10 44 57.339 +51 52 54.75 .43069 1.3386 137.3 22.4 36d 37 2021 02 24 19 10 44 57.925 +51 54 38.94 .43070 1.3384 137.3 22.4 36d 37 2021 02 24 20 10 44 58.511 +51 56 23.03 .43070 1.3383 137.2 22.4 36d 37 2021 02 24 21 10 44 59.097 +51 58 07.02 .43070 1.3381 137.2 22.4 36d 37 2021 02 24 22 10 44 59.682 +51 59 50.91 .43071 1.3380 137.1 22.4 36d 37 2021 02 24 23 10 45 00.268 +52 01 34.69 .43071 1.3378 137.1 22.4 36d 37 2021 02 25 00 10 45 00.853 +52 03 18.38 .43072 1.3377 137.1 22.4 36d 37 2021 02 25 01 10 45 01.439 +52 05 01.95 .43072 1.3375 137.0 22.4 36d 37 2021 02 25 02 10 45 02.024 +52 06 45.43 .43073 1.3374 137.0 22.4 36d 37 2021 02 25 03 10 45 02.609 +52 08 28.80 .43073 1.3373 136.9 22.4 36d 37 2021 02 25 04 10 45 03.194 +52 10 12.07 .43074 1.3371 136.9 22.4 36d 37 2021 02 25 05 10 45 03.780 +52 11 55.23 .43074 1.3370 136.8 22.4 36d 37 2021 02 25 06 10 45 04.365 +52 13 38.29 .43075 1.3368 136.8 22.4 36d 37 2021 02 25 07 10 45 04.950 +52 15 21.24 .43075 1.3367 136.8 22.4 36d 37 2021 02 25 08 10 45 05.535 +52 17 04.09 .43076 1.3365 136.7 22.4 36d 37 2021 02 25 09 10 45 06.120 +52 18 46.84 .43077 1.3364 136.7 22.4 36d 37 2021 02 25 10 10 45 06.705 +52 20 29.48 .43077 1.3362 136.6 22.4 36d 37 2021 02 25 11 10 45 07.290 +52 22 12.02 .43078 1.3361 136.6 22.4 36d 37 2021 02 25 12 10 45 07.875 +52 23 54.45 .43079 1.3359 136.6 22.5 36d 37 2021 02 25 13 10 45 08.460 +52 25 36.78 .43079 1.3358 136.5 22.5 36d 37 2021 02 25 14 10 45 09.046 +52 27 19.00 .43080 1.3356 136.5 22.5 36d 37 2021 02 25 15 10 45 09.631 +52 29 01.11 .43081 1.3355 136.4 22.5 36d 37 2021 02 25 16 10 45 10.216 +52 30 43.12 .43082 1.3354 136.4 22.5 36d 37 2021 02 25 17 10 45 10.801 +52 32 25.03 .43083 1.3352 136.3 22.5 36d 37 2021 02 25 18 10 45 11.387 +52 34 06.82 .43084 1.3351 136.3 22.5 36d 37 2021 02 25 19 10 45 11.972 +52 35 48.52 .43084 1.3349 136.3 22.5 36d 37 2021 02 25 20 10 45 12.558 +52 37 30.10 .43085 1.3348 136.2 22.5 36d 37 2021 02 25 21 10 45 13.144 +52 39 11.58 .43086 1.3346 136.2 22.5 36d 37 2021 02 25 22 10 45 13.729 +52 40 52.95 .43087 1.3345 136.1 22.5 36d 37 2021 02 25 23 10 45 14.315 +52 42 34.22 .43088 1.3343 136.1 22.5 36d 36 2021 02 26 00 10 45 14.901 +52 44 15.38 .43089 1.3342 136.0 22.5 36d 36 2021 02 26 01 10 45 15.487 +52 45 56.43 .43090 1.3340 136.0 22.5 37d 36 2021 02 26 02 10 45 16.074 +52 47 37.37 .43091 1.3339 136.0 22.5 37d 36 2021 02 26 03 10 45 16.660 +52 49 18.21 .43092 1.3337 135.9 22.5 37d 36 2021 02 26 04 10 45 17.247 +52 50 58.94 .43094 1.3336 135.9 22.5 37d 36 2021 02 26 05 10 45 17.833 +52 52 39.56 .43095 1.3335 135.8 22.5 37d 36 2021 02 26 06 10 45 18.420 +52 54 20.08 .43096 1.3333 135.8 22.5 37d 36 2021 02 26 07 10 45 19.007 +52 56 00.48 .43097 1.3332 135.7 22.5 37d 36 2021 02 26 08 10 45 19.594 +52 57 40.78 .43098 1.3330 135.7 22.5 37d 36 2021 02 26 09 10 45 20.182 +52 59 20.97 .43099 1.3329 135.7 22.5 37d 36 2021 02 26 10 10 45 20.769 +53 01 01.05 .43101 1.3327 135.6 22.5 37d 36 2021 02 26 11 10 45 21.357 +53 02 41.03 .43102 1.3326 135.6 22.5 37d 36 2021 02 26 12 10 45 21.945 +53 04 20.89 .43103 1.3324 135.5 22.5 37d 36 2021 02 26 13 10 45 22.534 +53 06 00.65 .43104 1.3323 135.5 22.5 37d 36 2021 02 26 14 10 45 23.122 +53 07 40.29 .43106 1.3321 135.5 22.5 37d 36 2021 02 26 15 10 45 23.711 +53 09 19.83 .43107 1.3320 135.4 22.5 37d 36